Regional Weather Roundup
Issued by NWS Goodland, KS

Home | Current Version | Previous Version | Graphics & Text | Print | Product List | Glossary On
Versions: 1 2 3 4 5 6 7 8 9 10 11 12 13 14 15 16 17 18 19 20 21 22 23 24 25 26 27 28 29 30 31 32 33 34 35 36 37 38 39 40 41 42 43 44 45 46 47 48 49 50
000
ASUS43 KGLD 292059
RWRGLD

GOODLAND FORECAST AREA HOURLY WEATHER ROUNDUP
NATIONAL WEATHER SERVICE GOODLAND KS
300 PM MDT WED JUL 29 2015

...OFFICIAL OBSERVATIONS...

CITY           SKY/WX    TMP DP  RH WIND       PRES   REMARKS
GOODLAND KS    MOSUNNY   80  43  26 SE14G23   30.28F
HILL CITY KS   MOSUNNY   83  54  36 SE8       30.23F
IMPERIAL NEB   SUNNY     84  44  24 S14G23    30.26F
MCCOOK NEB     SUNNY     83  51  33 S5        30.24F
AKRON CO       SUNNY     80  48  32 SE22G31   30.30F
BURLINGTON CO  SUNNY     80  43  26 SE10G21   30.31F
LIMON CO       SUNNY     77  45  32 SE20G26   30.34F
$$

...UNOFFICIAL OBSERVATIONS...

CITY           SKY/WX    TMP DP  RH WIND       PRES   REMARKS
COLBY KS       SUNNY     82  54  36 E8        30.27F
NORTON KS      SUNNY     81  46  30 E5        30.23F
SHARON SPRINGS   N/A     81  53  37 SE5G14      N/A
KIT CARSON CO    N/A     79  46  30 MISG        N/A
YUMA CO          N/A     80  46  29 SW10G17     N/A
$$



USA.gov is the U.S. government's official web portal to all federal, state and local government web resources and services.